When you browse on this site, cookies collect data to enhance your experience and personalize the content and advertising you see.
Visit our Privacy Policy to learn more. By continuing to use the site, you agree to this use of cookies and data.
  • en Suisse
  • Liste des pays
  • À 7 jours
  • Température de l'eau
  • Carte satellitaire
  • Carte météo
  • Widgets météo
  • user-avatar
    Se connecter

    Météo par heure à Matlock

    Ce jour, 13 Décembre, Jeudi

    Heure Température Précipitation Vent Pression Humidité
    00:00 -2°C° 0 mm 6 m/s 746 mmHg 78%
    01:00 -1°C° 0 mm 6 m/s 746 mmHg 79%
    02:00 -1°C° 0 mm 6 m/s 745 mmHg 81%
    03:00 -1°C° 0 mm 6 m/s 745 mmHg 83%
    04:00 -1°C° 0 mm 6 m/s 745 mmHg 83%
    05:00 -1°C° 0 mm 6 m/s 745 mmHg 83%
    06:00 -1°C° 0 mm 6 m/s 745 mmHg 83%
    07:00 -1°C° 0 mm 6 m/s 745 mmHg 82%
    08:00 -1°C° 0 mm 6 m/s 745 mmHg 80%
    09:00 -1°C° 0 mm 6 m/s 745 mmHg 79%
    10:00 -1°C° 0 mm 6 m/s 746 mmHg 77%
    11:00 +1°C° 0 mm 6 m/s 746 mmHg 75%
    12:00 +2°C° 0 mm 6 m/s 746 mmHg 73%
    13:00 +1°C° 0 mm 6 m/s 746 mmHg 74%
    14:00 +1°C° 0 mm 5 m/s 746 mmHg 74%
    15:00 +1°C° 0 mm 5 m/s 746 mmHg 74%
    16:00 +1°C° 0 mm 5 m/s 747 mmHg 76%
    17:00 0°C° 0 mm 5 m/s 747 mmHg 77%
    18:00 0°C° 0 mm 5 m/s 747 mmHg 79%
    19:00 0°C° 0 mm 4 m/s 748 mmHg 80%
    20:00 -1°C° 0 mm 4 m/s 748 mmHg 82%
    21:00 -1°C° 0 mm 4 m/s 748 mmHg 83%
    22:00 0°C° 0 mm 3 m/s 749 mmHg 84%
    23:00 -1°C° 0 mm 2 m/s 749 mmHg 86%

    Demain, 14 Décembre, Vendredi

    Heure Température Précipitation Vent Pression Humidité
    00:00 -1°C° 0 mm 2 m/s 750 mmHg 87%
    01:00 -1°C° 0 mm 2 m/s 750 mmHg 86%
    02:00 -1°C° 0 mm 2 m/s 750 mmHg 86%
    03:00 -1°C° 0 mm 3 m/s 750 mmHg 86%
    04:00 -1°C° 0 mm 3 m/s 750 mmHg 86%
    05:00 -1°C° 0 mm 2 m/s 750 mmHg 86%
    06:00 -2°C° 0 mm 2 m/s 750 mmHg 86%
    07:00 -1°C° 0 mm 2 m/s 750 mmHg 85%
    08:00 -1°C° 0 mm 2 m/s 750 mmHg 85%
    09:00 -1°C° 0 mm 2 m/s 751 mmHg 85%
    10:00 0°C° 0 mm 3 m/s 751 mmHg 79%
    11:00 +1°C° 0 mm 3 m/s 750 mmHg 74%
    12:00 +1°C° 0 mm 4 m/s 750 mmHg 69%
    13:00 0°C° 0 mm 4 m/s 750 mmHg 70%
    14:00 +1°C° 0 mm 3 m/s 750 mmHg 72%
    15:00 +1°C° 0 mm 3 m/s 750 mmHg 73%
    16:00 0°C° 0 mm 3 m/s 749 mmHg 76%
    17:00 0°C° 0 mm 3 m/s 749 mmHg 78%
    18:00 -1°C° 0 mm 3 m/s 749 mmHg 81%
    19:00 -1°C° 0 mm 3 m/s 749 mmHg 82%
    20:00 -1°C° 0 mm 3 m/s 749 mmHg 83%
    21:00 -2°C° 0 mm 4 m/s 749 mmHg 84%
    22:00 -2°C° 0 mm 4 m/s 749 mmHg 83%
    23:00 -2°C° 0 mm 4 m/s 749 mmHg 82%

    Après-demain, 15 Décembre, Samedi

    Heure Température Précipitation Vent Pression Humidité
    00:00 -2°C° 0 mm 4 m/s 748 mmHg 80%
    01:00 -2°C° 0 mm 4 m/s 748 mmHg 80%
    02:00 -2°C° 0 mm 5 m/s 748 mmHg 80%
    03:00 -2°C° 0 mm 5 m/s 747 mmHg 80%
    04:00 -2°C° 0 mm 5 m/s 747 mmHg 78%
    05:00 -2°C° 0 mm 5 m/s 746 mmHg 77%
    06:00 -3°C° 0 mm 6 m/s 745 mmHg 76%
    07:00 -3°C° 0 mm 6 m/s 745 mmHg 75%
    08:00 -2°C° 0 mm 7 m/s 745 mmHg 74%
    09:00 -2°C° 0 mm 8 m/s 744 mmHg 74%
    10:00 -2°C° 0 mm 8 m/s 743 mmHg 71%
    11:00 -1°C° 0 mm 8 m/s 743 mmHg 68%
    12:00 -1°C° 0 mm 8 m/s 742 mmHg 65%
    13:00 -1°C° 0.4 mm 8 m/s 741 mmHg 68%
    14:00 -1°C° 0.4 mm 8 m/s 740 mmHg 72%
    15:00 -1°C° 0.4 mm 8 m/s 738 mmHg 75%
    16:00 -1°C° 0.3 mm 9 m/s 737 mmHg 78%
    17:00 -1°C° 0.3 mm 9 m/s 736 mmHg 81%
    18:00 -1°C° 0.3 mm 9 m/s 735 mmHg 84%
    19:00 0°C° 1.5 mm 10 m/s 733 mmHg 86%
    20:00 +1°C° 1.5 mm 10 m/s 732 mmHg 88%
    21:00 +1°C° 1.5 mm 10 m/s 731 mmHg 90%
    22:00 +3°C° 0.7 mm 10 m/s 729 mmHg 89%
    23:00 +5°C° 0.7 mm 10 m/s 727 mmHg 89%

    16 Décembre, Dimanche

    Heure Température Précipitation Vent Pression Humidité
    00:00 +6°C° 0.7 mm 10 m/s 725 mmHg 88%
    01:00 +6°C° 0.1 mm 10 m/s 724 mmHg 85%
    02:00 +6°C° 0.1 mm 11 m/s 724 mmHg 83%
    03:00 +6°C° 0.1 mm 11 m/s 723 mmHg 80%
    04:00 +6°C° 0.4 mm 11 m/s 724 mmHg 77%
    05:00 +4°C° 0.4 mm 11 m/s 725 mmHg 74%
    06:00 +3°C° 0.4 mm 12 m/s 726 mmHg 70%
    07:00 +3°C° 0.1 mm 11 m/s 728 mmHg 70%
    08:00 +3°C° 0.1 mm 10 m/s 729 mmHg 70%
    09:00 +3°C° 0.1 mm 9 m/s 731 mmHg 69%
    10:00 +3°C° 0 mm 9 m/s 732 mmHg 68%
    11:00 +4°C° 0 mm 8 m/s 733 mmHg 67%
    12:00 +5°C° 0 mm 8 m/s 734 mmHg 67%
    13:00 +5°C° 0 mm 7 m/s 734 mmHg 69%
    14:00 +4°C° 0 mm 6 m/s 735 mmHg 71%
    15:00 +5°C° 0 mm 5 m/s 735 mmHg 73%
    16:00 +4°C° 0 mm 4 m/s 736 mmHg 77%
    17:00 +4°C° 0 mm 4 m/s 736 mmHg 81%
    18:00 +3°C° 0 mm 3 m/s 736 mmHg 85%
    19:00 +3°C° 0.1 mm 3 m/s 737 mmHg 87%
    20:00 +3°C° 0.1 mm 3 m/s 737 mmHg 89%
    21:00 +4°C° 0.1 mm 2 m/s 737 mmHg 91%
    22:00 +4°C° 0 mm 2 m/s 738 mmHg 92%
    23:00 +3°C° 0 mm 2 m/s 738 mmHg 92%

    17 Décembre, Lundi

    Heure Température Précipitation Vent Pression Humidité
    00:00 +3°C° 0 mm 2 m/s 738 mmHg 92%
    01:00 +3°C° 0 mm 2 m/s 739 mmHg 92%
    02:00 +2°C° 0 mm 2 m/s 739 mmHg 91%
    03:00 +2°C° 0 mm 2 m/s 739 mmHg 90%
    04:00 +2°C° 0 mm 2 m/s 739 mmHg 90%
    05:00 +2°C° 0 mm 2 m/s 740 mmHg 90%
    06:00 +2°C° 0 mm 2 m/s 740 mmHg 90%
    07:00 +2°C° 0 mm 2 m/s 741 mmHg 90%
    08:00 +2°C° 0 mm 2 m/s 741 mmHg 90%
    09:00 +2°C° 0 mm 2 m/s 742 mmHg 90%
    10:00 +3°C° 0 mm 2 m/s 742 mmHg 87%
    11:00 +4°C° 0 mm 2 m/s 742 mmHg 84%
    12:00 +4°C° 0 mm 3 m/s 742 mmHg 81%
    13:00 +4°C° 0 mm 3 m/s 742 mmHg 83%
    14:00 +4°C° 0 mm 3 m/s 742 mmHg 85%
    15:00 +3°C° 0 mm 3 m/s 742 mmHg 87%
    16:00 +3°C° 0 mm 4 m/s 742 mmHg 88%
    17:00 +3°C° 0 mm 4 m/s 741 mmHg 89%
    18:00 +2°C° 0 mm 5 m/s 741 mmHg 89%
    19:00 +3°C° 0 mm 5 m/s 741 mmHg 89%
    20:00 +3°C° 0 mm 6 m/s 740 mmHg 89%
    21:00 +4°C° 0 mm 7 m/s 740 mmHg 89%
    22:00 +4°C° 0.4 mm 8 m/s 739 mmHg 89%
    23:00 +5°C° 0.4 mm 8 m/s 738 mmHg 89%

    18 Décembre, Mardi

    Heure Température Précipitation Vent Pression Humidité
    00:00 +6°C° 0.4 mm 9 m/s 738 mmHg 88%
    01:00 +6°C° 0.2 mm 9 m/s 737 mmHg 88%
    02:00 +7°C° 0.2 mm 9 m/s 736 mmHg 88%
    03:00 +7°C° 0.2 mm 9 m/s 735 mmHg 87%
    04:00 +7°C° 0.1 mm 9 m/s 734 mmHg 86%
    05:00 +7°C° 0.1 mm 9 m/s 733 mmHg 85%
    06:00 +7°C° 0.1 mm 10 m/s 732 mmHg 84%
    07:00 +7°C° 0.5 mm 10 m/s 732 mmHg 83%
    08:00 +7°C° 0.5 mm 11 m/s 731 mmHg 83%
    09:00 +7°C° 0.5 mm 11 m/s 730 mmHg 82%
    10:00 +7°C° 1.4 mm 11 m/s 730 mmHg 82%
    11:00 +6°C° 1.4 mm 11 m/s 730 mmHg 82%
    12:00 +6°C° 1.4 mm 11 m/s 729 mmHg 82%
    13:00 +6°C° 1.1 mm 8 m/s 729 mmHg 85%
    14:00 +5°C° 1.1 mm 6 m/s 729 mmHg 87%
    15:00 +6°C° 1.1 mm 4 m/s 728 mmHg 89%
    16:00 +5°C° 0 mm 4 m/s 728 mmHg 89%
    17:00 +5°C° 0 mm 4 m/s 729 mmHg 89%
    18:00 +4°C° 0 mm 3 m/s 729 mmHg 89%
    19:00 +4°C° 0 mm 4 m/s 729 mmHg 89%
    20:00 +4°C° 0 mm 4 m/s 729 mmHg 89%
    21:00 +4°C° 0 mm 4 m/s 729 mmHg 88%
    22:00 +4°C° 0 mm 4 m/s 729 mmHg 89%
    23:00 +4°C° 0 mm 4 m/s 729 mmHg 89%
    Voir plus